Weather History for Thermal, CA

Change the Weather History Date:

Tuesday, February 18, 2014

  Actual Average Record
Temperature  
Mean Temperature 66 °F 59 °F  
Max Temperature 86 °F 75 °F 93 °F (1981)
Min Temperature 46 °F 42 °F 30 °F (1956)
Degree Days  
Heating Degree Days 0 7  
Month to date heating degree days 94 147  
Since 1 July heating degree days 767 1007  
Cooling Degree Days 1 0  
Month to date cooling degree days 5 0  
Year to date cooling degree days 5 2  
Growing Degree Days 17 (Base 50)    
Moisture  
Dew Point 31 °F    
Average Humidity 31    
Maximum Humidity 54    
Minimum Humidity 8    
Precipitation  
Precipitation 0.00 in 0.03 in 0.73 in (2011)
Month to date precipitation 0.00 0.41  
Year to date precipitation T 1.08  
Since 1 July precipitation 1.47 2.46  
Snow  
Snow 0.00 in - - ()
Month to date snowfall 0.0  
Year to date snowfall 0.0  
Since 1 July snowfall 0.0  
Snow Depth 0.00 in    
Sea Level Pressure  
Sea Level Pressure 29.89 in    
Wind  
Wind Speed 6 mph (NNW)    
Max Wind Speed 14 mph    
Max Gust Speed 19 mph    
Visibility 10 miles    
Events      
T = Trace of Precipitation, MM = Missing Value Source: NWS Daily Summary

Daily Weather History Graph

Daily Weather History Graph

Search for Another Location

Airport:

Trip Planner

Search our weather history database for the weather conditions in past years. The results will help you decide how hot, cold, wet, or windy it might be!

Date:

Astronomy

Feb. 18, 2014 Rise Set
Actual Time 6:25 AM PST 5:31 PM PST
Civil Twilight 6:00 AM PST 5:57 PM PST
Nautical Twilight 5:31 AM PST 6:26 PM PST
Astronomical Twilight 5:02 AM PST 6:55 PM PST
Moon 9:15 PM PST (2/18) 8:12 AM PST (2/18)
Length of Visible Light 11h 56m
Length of Day
11h 06m
Waning Gibbous, 86% of the Moon is Illuminated
Feb 18
Waning Gibbous
Feb 22
Last Quarter
Mar 1
New
Mar 8
First Quarter
Mar 16
Full

Hourly Weather History & Observations

Time (PST) Temp. Dew Point Humidity Pressure Visibility Wind Dir Wind Speed Gust Speed Precip Events Conditions
12:52 AM 66.0 °F 35.1 °F 32% 29.90 in 10.0 mi NNW 8.1 mph - N/A   Clear
1:52 AM 64.9 °F 36.0 °F 34% 29.88 in 10.0 mi NW 11.5 mph - N/A   Clear
2:52 AM 64.0 °F 33.1 °F 31% 29.88 in 10.0 mi NNW 8.1 mph - N/A   Clear
3:24 AM 62.1 °F 32.0 °F 32% 29.87 in 5.0 mi NW 5.8 mph - N/A   Haze
3:52 AM 60.1 °F 30.9 °F 33% 29.88 in 10.0 mi NNW 6.9 mph - N/A   Clear
4:52 AM 50.0 °F 34.0 °F 54% 29.90 in 10.0 mi WSW 4.6 mph - N/A   Clear
5:52 AM 48.9 °F 32.0 °F 52% 29.91 in 10.0 mi Variable 4.6 mph - N/A   Clear
6:52 AM 48.0 °F 28.0 °F 46% 29.93 in 10.0 mi North 4.6 mph - N/A   Clear
7:52 AM 60.1 °F 35.1 °F 39% 29.95 in 10.0 mi NW 4.6 mph - N/A   Clear
8:52 AM 71.1 °F 28.0 °F 20% 29.96 in 10.0 mi NNW 8.1 mph - N/A   Clear
9:52 AM 75.0 °F 30.0 °F 19% 29.96 in 10.0 mi Variable 4.6 mph - N/A   Clear
10:52 AM 78.1 °F 27.0 °F 15% 29.95 in 10.0 mi Variable 4.6 mph - N/A   Clear
11:52 AM 82.0 °F 21.9 °F 11% 29.92 in 10.0 mi North 4.6 mph - N/A   Clear
12:52 PM 86.0 °F 21.0 °F 9% 29.89 in 10.0 mi Variable 4.6 mph - N/A   Clear
1:52 PM 84.9 °F 16.0 °F 8% 29.87 in 10.0 mi Calm Calm - N/A   Clear
2:52 PM 84.9 °F 27.0 °F 12% 29.86 in 10.0 mi South 4.6 mph - N/A   Clear
3:52 PM 84.0 °F 28.0 °F 13% 29.86 in 10.0 mi SE 5.8 mph - N/A   Clear
4:52 PM 79.0 °F 33.1 °F 19% 29.86 in 10.0 mi South 4.6 mph - N/A   Clear
5:52 PM 72.0 °F 33.1 °F 24% 29.86 in 10.0 mi SSE 3.5 mph - N/A   Clear
6:52 PM 64.9 °F 35.1 °F 33% 29.87 in 10.0 mi Calm Calm - N/A   Clear
7:52 PM 62.1 °F 36.0 °F 38% 29.87 in 8.0 mi Calm Calm - N/A   Clear
8:52 PM 57.9 °F 37.9 °F 47% 29.88 in 10.0 mi NW 3.5 mph - N/A   Clear
9:52 PM 60.1 °F 37.0 °F 42% 29.89 in 10.0 mi NE 6.9 mph - N/A   Clear
10:52 PM 57.9 °F 36.0 °F 44% 29.88 in 10.0 mi North 5.8 mph - N/A   Clear
11:52 PM 57.0 °F 36.0 °F 45% 29.86 in 10.0 mi NNW 5.8 mph - N/A   Clear